Home > Weather > Emmen > Past weeks

Flag for Netherlands Past Weather in Emmen, Netherlands — Yesterday and Last 2 Weeks

Now
57 °F

Cool.


Feels Like: 57 °F
Forecast: 49 / 68 °F
Wind: 2 mph from Northeast

Location: Meppen

Current Time: May 27, 2016 at 12:29:52 AM

Latest Report: May 26, 2016 at 10:00 PM


Visibility: 5 mi

Pressure: 30.04 "Hg

Humidity: 80%

Dew Point: 51 °F

Location of EmmenLocation

Past Weather in Emmen — Graph

°F

Emmen Temperature Yesterday

Maximum temperature yesterday: 64 °F (at 4:00 PM)
Minimum temperature yesterday: 44 °F (at 4:00 AM)
Average temperature yesterday: 56 °F

High & Low Weather Summary for the Past Weeks

 TemperatureHumidityPressure
High77 °F (May 12, 6:00 PM)95% (May 26, 6:00 AM)30.10 "Hg (May 26, 6:00 AM)
Low36 °F (May 16, 6:00 AM)25% (May 13, 12:00 PM)29.56 "Hg (May 12, 7:00 PM)
Average56 °F70%29.89 "Hg
* Reported May 11 10:00 PM — May 26 10:00 PM, Emmen, Weather by CustomWeather, © 2016

Note: Actual official high and low records may vary slightly from our data, if they occured in-between our weather recording intervals... More about our weather records

Advertising

Emmen Weather History for the Previous 24 Hours

Scroll right to see more
 ConditionsComfort  
Time TempWeatherWind HumidityBarometerVisibility
10:00 PM
Thu, May 26
57 °FCool.2 mph80%30.04 "Hg5 mi
9:00 PM59 °FCool.2 mph74%30.03 "Hg6 mi
7:00 PM64 °FMild.2 mph59%30.03 "Hg5 mi
6:00 PM64 °FMild.3 mph60%30.03 "Hg6 mi
4:00 PM64 °FOvercast.2 mph57%30.04 "Hg17 mi
3:00 PM63 °FPartly sunny.2 mph59%30.05 "Hg15 mi
1:00 PM61 °FOvercast.N/A62%30.05 "Hg16 mi
12:00 PM62 °FScattered clouds.2 mph64%30.03 "Hg14 mi
10:00 AM61 °FPassing clouds.N/A66%30.04 "Hg11 mi
9:00 AM59 °FHaze.N/A78%30.03 "Hg4 mi
8:00 AMN/APassing clouds.1 mphN/AN/A2 mi
7:00 AM49 °FFog.No wind95%30.02 "Hg3 mi
6:00 AM46 °FFog.No wind95%30.02 "Hg3 mi
4:00 AM44 °FQuite cool.No wind94%30.01 "Hg0 mi
3:00 AM45 °FCool.No wind94%30.01 "Hg0 mi
1:00 AM49 °FCool.1 mph94%30.01 "Hg0 mi
12:00 AM51 °FCool.N/A93%30.01 "Hg3 mi
Weather by CustomWeather, © 2016

See weather overviewHow to use our weather pages